Main page
METAR-TAF:

METAR-TAF

Airports :

Naxos Island National Airport

Naxos, Greece

latitude: 37-04-47N, longitude: 025-22-01E, elevation: 3 m

Current weather observation

The report was made 17 hours and 56 minutes ago, at 09:50 UTC
Wind 10 kt from the North
Temperature 22°C
Humidity 46%
Pressure 1019 hPa
Visibility 10 km or more
no clouds below 1500 m and no cumulonimbus

METAR: LGNX 250950Z 01010KT CAVOK 22/10 Q1019

Time: 06:46 (03:46 UTC)


TAF: missing

Weather observations and forecasts of more than 4000 airports (METAR and TAF reports).

The available stations are represented by yellow and red dots on the map.

Hover mouse over dot to see the name of the station.

Then click to see weather observations and forecasts.

To change the map : click on the green buttons with a black cross to zoom in, on the green button with a dash to zoom out, or on the green arrows for adjacent maps.


METAR-TAF: